Saint Martin Island, Netherlands Antilles

5:40 AM on March 25, 2017 (GMT +0000)
Saint Martin Island

Weather History for 78866 - August, 2014

Change the Weather History Date:

Sunday, August 10, 2014

  Actual Average Record
Temperature  
Mean Temperature 84 °F -  
Max Temperature 87 °F 87 °F - ()
Min Temperature 80 °F 77 °F - ()
Cooling Degree Days 18    
Growing Degree Days 34 (Base 50)    
Moisture  
Dew Point 72 °F    
Average Humidity 69    
Maximum Humidity 84    
Minimum Humidity 53    
Precipitation  
Precipitation 0.08 in 0.14 in - ()
Sea Level Pressure  
Sea Level Pressure 30.02 in    
Wind  
Wind Speed 10 mph ()    
Max Wind Speed 16 mph    
Max Gust Speed 23 mph    
Visibility 7.7 miles    
Events Rain    
T = Trace of Precipitation, MM = Missing Value Source: Averaged Metar Reports

Daily Weather History Graph

Daily Weather History Graph

Search for Another Location

Airport or City:

Trip Planner

Search our weather history database for the weather conditions in past years. The results will help you decide how hot, cold, wet, or windy it might be!

Date:

Astronomy

Aug. 10, 2014 Rise Set
Actual Time 9:53 AM UTC 10:41 PM UTC
Civil Twilight 9:30 AM UTC 11:04 PM UTC
Nautical Twilight 9:03 AM UTC 11:31 PM UTC
Astronomical Twilight 8:36 AM UTC 11:58 PM UTC
Moon 10:36 PM UTC (8/10) 9:34 AM UTC (8/10)
Length of Visible Light 13h 34m
Length of Day
12h 48m
Full, 100% of the Moon is Illuminated
Aug 10
Full
Aug 10
Full
Aug 17
Last Quarter
Aug 25
New
Sep 2
First Quarter

Hourly Weather History & Observations

Time (GMT) Temp. Heat Index Dew Point Humidity Pressure Visibility Wind Dir Wind Speed Gust Speed Precip Events Conditions
12:00 AM 82 °F - 72 °F 65% 30.05 in 19 mi East 9.2 mph - -   Partly Cloudy
12:00 AM 82.4 °F 87.2 °F 71.6 °F 70% 30.04 in 6.2 mi East 9.2 mph - N/A   Scattered Clouds
1:00 AM 82.4 °F 87.2 °F 71.6 °F 70% 30.06 in 6.2 mi East 9.2 mph - N/A   Partly Cloudy
2:00 AM 82.4 °F 88.2 °F 73.4 °F 74% 30.06 in 6.2 mi East 10.4 mph - N/A   Partly Cloudy
3:00 AM 82 °F - 72 °F 63% 30.09 in 19 mi ENE 10.4 mph - -   Partly Cloudy
3:00 AM 82.4 °F 87.2 °F 71.6 °F 70% 30.06 in 6.2 mi ENE 10.4 mph - N/A   Scattered Clouds
4:00 AM 82.4 °F 87.2 °F 71.6 °F 70% 30.06 in 6.2 mi East 9.2 mph - N/A   Scattered Clouds
5:00 AM 80.6 °F 84.6 °F 71.6 °F 74% 30.04 in 6.2 mi East 10.4 mph - N/A   Scattered Clouds
6:00 AM 81 °F - 72 °F 66% 30.04 in 19 mi East 10.4 mph - -   Partly Cloudy
6:00 AM 80.6 °F 84.6 °F 71.6 °F 74% 30.04 in 6.2 mi East 10.4 mph - N/A   Scattered Clouds
7:00 AM 80.6 °F 84.6 °F 71.6 °F 74% 30.01 in 6.2 mi East 11.5 mph - N/A   Partly Cloudy
8:00 AM 80.6 °F 84.6 °F 71.6 °F 74% 30.01 in 6.2 mi East 10.4 mph 23.0 mph N/A   Partly Cloudy
9:00 AM 81 °F - 72 °F 67% 30.02 in 31 mi ENE 10.4 mph - -   Partly Cloudy
9:00 AM 80.6 °F 84.6 °F 71.6 °F 74% 30.01 in 6.2 mi ENE 10.4 mph - N/A   Scattered Clouds
10:00 AM 80.6 °F 84.6 °F 71.6 °F 74% 30.01 in 6.2 mi East 11.5 mph - N/A   Partly Cloudy
11:00 AM 82.4 °F 87.2 °F 71.6 °F 70% 30.04 in 6.2 mi East 12.7 mph - N/A   Partly Cloudy
12:00 PM 83 °F - 71 °F 60% 30.04 in 31 mi East 8.1 mph - - Rain Light Rain Showers
12:00 PM 82.4 °F 87.2 °F 71.6 °F 70% 30.04 in 6.2 mi East 8.1 mph - N/A   Scattered Clouds
1:00 PM 84.2 °F 89.6 °F 71.6 °F 66% 30.04 in 6.2 mi ENE 12.7 mph - N/A   Scattered Clouds
2:00 PM 86.0 °F 91.8 °F 71.6 °F 62% 30.04 in 6.2 mi ENE 16.1 mph - N/A   Scattered Clouds
3:00 PM 86 °F - 71 °F 53% 30.06 in 25 mi East 11.5 mph - -   Partly Cloudy
3:00 PM 86.0 °F 91.8 °F 71.6 °F 62% 30.04 in 6.2 mi East 11.5 mph - N/A   Scattered Clouds
4:00 PM 86.0 °F 91.8 °F 71.6 °F 62% 30.04 in 6.2 mi East 12.7 mph - N/A   Scattered Clouds
5:00 PM 86.0 °F 91.8 °F 71.6 °F 62% 30.01 in 6.2 mi ENE 15.0 mph - N/A   Mostly Cloudy
6:00 PM 85 °F - 74 °F 63% 30.01 in 19 mi East 15.0 mph - - Rain Light Rain Showers
6:00 PM 86.0 °F 95.1 °F 75.2 °F 70% 30.01 in 6.2 mi East 15.0 mph - N/A   Scattered Clouds
7:00 PM 87.8 °F 93.8 °F 71.6 °F 58% 29.98 in 6.2 mi ENE 15.0 mph - N/A   Scattered Clouds
8:00 PM 86.0 °F 93.4 °F 73.4 °F 66% 29.98 in 6.2 mi East 16.1 mph - N/A   Scattered Clouds
8:18 PM 84.2 °F 90.9 °F 73.4 °F 70% 29.98 in 1.9 mi ENE 16.1 mph - N/A Rain Heavy Rain Showers
9:00 PM 82 °F - 74 °F 69% 29.99 in 12 mi East 12.7 mph - - Rain Light Rain Showers
9:00 PM 82.4 °F 88.2 °F 73.4 °F 74% 29.98 in 6.2 mi East 11.5 mph - N/A   Mostly Cloudy
9:11 PM 82.4 °F 89.5 °F 75.2 °F 79% 29.98 in 1.9 mi ENE 13.8 mph - N/A Rain Heavy Rain Showers
9:31 PM 80.6 °F 86.2 °F 75.2 °F 84% 29.98 in 6.2 mi East 11.5 mph - N/A   Scattered Clouds
10:00 PM 80.6 °F 86.2 °F 75.2 °F 84% 30.01 in 6.2 mi ENE 12.7 mph - N/A   Scattered Clouds
11:00 PM 80.6 °F 86.2 °F 75.2 °F 84% 30.01 in 6.2 mi ENE 12.7 mph - N/A   Scattered Clouds